Probability
0 0 0 0 0 0 0 0 1 2 3 4 9 13 11 7 3 1 0 2 6 8 7 9 12 12 9 7 6 5 4 3 2 1 0 0 0 0 1 3 2 1 0 0 0 0 0 0 0
0 0 0 0 0 0 0 0 1 2 4 9 15 17 13 8 4 2 0 3 7 9 9 10 14 14 11 9 7 6 5 3 3 3 2 1 1 1 2 3 3 1 0 0 0 0 0 0 0
0 0 0 0 0 0 0 0 3 5 9 14 20 20 14 8 6 4 3 6 11 12 11 14 16 17 15 12 9 8 7 5 4 5 5 3 3 3 3 3 2 1 0 0 0 0 1 1 1
0 0 0 0 0 0 0 1 6 12 15 18 22 21 15 10 9 10 10 13 16 16 15 18 20 19 18 15 11 10 9 7 6 6 6 5 4 3 3 2 1 1 0 0 0 0 1 2 2
0 0 0 0 0 0 0 3 10 17 20 21 24 21 16 13 16 20 20 18 19 20 20 21 22 21 19 17 12 10 9 8 7 7 6 6 5 3 2 2 1 0 0 0 0 0 0 1 1
0 0 0 0 0 0 1 4 12 18 20 21 22 19 15 15 19 22 23 20 22 24 24 22 21 20 19 18 14 11 10 9 8 7 6 6 5 3 2 2 2 1 0 0 0 0 0 0 0
0 0 0 0 0 1 4 6 11 17 19 18 19 18 15 15 17 19 21 22 24 28 27 23 20 17 17 18 16 13 11 10 9 7 6 5 5 4 3 3 3 1 0 0 0 0 0 0 0
0 0 0 0 0 2 5 8 12 18 19 16 16 17 17 18 21 25 26 24 24 27 26 23 20 17 16 17 16 14 12 10 9 7 5 4 4 4 4 5 4 3 1 0 0 1 1 0 0
0 0 0 0 1 3 6 9 13 21 25 21 19 20 23 26 32 37 35 27 23 22 21 20 19 19 17 15 13 11 10 10 8 5 4 3 2 3 4 5 6 5 3 2 2 3 2 1 1
0 0 0 1 3 5 6 7 13 24 30 26 23 26 29 32 37 43 40 31 23 19 16 15 16 17 15 12 9 7 6 6 5 3 2 2 2 2 4 6 7 6 4 3 3 4 3 2 2
1 0 1 2 4 6 6 6 12 23 28 24 24 29 33 34 36 40 40 33 24 18 14 12 12 11 10 8 8 6 5 3 2 2 2 2 2 1 3 5 6 6 4 3 3 3 3 2 2
2 1 1 3 5 6 6 6 10 18 23 23 26 32 34 33 31 33 35 31 26 21 17 13 11 9 8 9 9 8 5 3 1 1 2 3 2 1 1 2 3 4 5 3 2 3 3 3 2
2 2 2 3 4 6 6 6 10 16 23 28 32 35 34 30 27 28 30 30 28 26 23 18 14 12 12 13 12 9 6 3 1 1 3 5 3 2 1 1 2 4 3 2 2 3 3 3 3
2 3 4 3 3 5 6 8 12 17 25 31 34 33 31 28 27 29 31 32 30 29 28 25 21 19 19 18 15 11 8 6 5 5 6 6 5 4 3 2 3 3 1 0 1 2 2 3 3
1 3 3 2 3 4 5 9 13 19 25 30 32 31 29 29 31 33 35 34 33 32 32 30 26 24 24 22 19 15 13 13 12 10 9 9 8 8 7 5 4 3 1 0 0 1 1 1 2
0 1 1 1 2 3 4 8 13 20 25 27 28 30 31 32 35 37 38 36 35 35 34 31 29 28 27 24 22 19 18 18 18 16 14 14 14 13 11 9 6 4 2 1 1 1 0 0 1
0 0 0 0 1 2 4 8 13 20 25 25 24 27 30 33 36 38 38 37 36 35 34 32 30 30 28 25 22 20 18 18 18 18 17 17 17 15 13 10 7 5 4 3 2 2 1 0 0
0 0 0 0 0 1 5 9 14 20 25 25 25 26 29 31 32 33 34 34 35 36 35 33 31 29 26 23 20 18 16 15 16 15 14 15 15 15 13 11 8 7 6 4 3 3 2 0 0
1 1 0 0 0 2 6 10 14 18 23 26 28 29 29 28 28 28 28 30 33 35 35 34 31 28 24 20 19 16 14 14 14 13 12 12 13 14 14 12 9 8 7 4 3 3 1 0 0
2 1 0 0 1 2 5 8 10 14 18 23 26 28 26 25 26 27 26 25 30 34 34 32 30 27 22 20 19 17 15 15 15 13 11 11 13 14 13 12 10 8 6 4 3 2 1 0 0
1 1 0 0 1 2 3 4 6 9 14 17 20 21 22 24 26 26 22 20 23 29 30 29 27 24 21 20 20 18 16 15 14 11 10 11 13 13 12 11 9 7 6 4 2 1 1 1 1
0 0 0 0 0 1 1 2 3 6 9 13 14 16 19 23 25 22 17 16 18 23 26 26 24 21 19 20 20 18 15 13 10 8 8 10 12 12 11 10 9 7 5 3 2 2 2 2 2
0 0 0 0 0 0 0 1 1 2 5 8 11 15 18 21 23 20 16 16 17 21 24 25 22 19 18 19 19 16 13 10 8 6 6 8 10 11 11 10 8 6 5 4 3 3 3 3 2
0 0 0 0 0 0 0 0 0 0 2 5 10 14 16 18 19 18 17 18 19 21 24 24 21 18 16 16 16 14 11 10 8 7 6 7 8 8 8 7 5 4 5 4 3 2 2 1 1
0 0 0 1 0 0 0 0 0 0 3 6 9 11 12 13 15 16 17 17 18 21 22 21 18 15 13 12 12 11 10 9 9 8 6 6 6 5 4 3 2 1 2 2 1 1 1 0 0
0 0 0 0 0 0 0 0 0 1 5 9 10 11 10 10 11 14 15 16 16 18 19 17 15 14 12 10 10 9 9 8 8 7 6 5 4 2 1 1 0 0 0 0 0 0 0 0 0
0 0 0 0 0 0 0 0 0 2 5 9 11 12 10 9 9 12 14 15 14 13 14 14 13 12 10 9 8 7 7 6 6 6 5 5 3 1 0 0 0 0 0 0 0 0 0 0 0
0 0 0 0 0 0 0 0 0 1 3 5 8 10 9 8 9 11 14 13 12 10 9 10 10 10 8 7 6 5 4 3 3 4 4 4 3 2 1 0 0 0 0 0 0 0 0 0 0
0 0 0 0 0 0 0 0 0 0 1 1 3 5 6 6 8 11 12 11 10 8 6 6 6 7 6 5 4 4 3 1 1 1 1 2 3 2 1 0 0 0 0 0 0 0 0 0 0
0 0 0 0 0 0 0 0 0 0 0 0 0 2 4 5 7 9 10 10 9 7 5 4 4 5 5 4 3 3 3 2 1 0 0 1 2 2 1 0 0 0 0 0 0 0 0 0 0
Wind_Speed
3 2 1 3 5 4 2 4 2 1 4 5 10 10 10 6 5 5 4 14 16 14 11 14 15 15 15 14 14 13 13 13 12 12 12 12 11 11 10 10 9 8 8 7 7 6 6 6 5
2 1 3 4 5 1 4 4 0 2 6 8 11 10 9 8 8 10 7 14 17 15 10 12 16 16 15 15 14 13 13 12 12 11 11 11 10 10 9 8 8 7 6 6 6 6 5 4 4
2 1 3 4 3 4 5 3 2 4 5 6 6 7 6 6 7 6 10 17 15 12 10 13 17 16 15 15 14 13 13 12 11 11 10 9 9 8 8 7 7 6 5 5 4 4 4 3 2
1 3 4 3 3 6 5 5 1 4 5 6 9 7 4 4 5 11 17 17 16 11 10 12 17 16 15 15 14 13 12 12 11 10 9 8 8 7 6 6 5 5 4 4 4 3 2 2 1
3 4 3 1 4 5 4 5 2 3 3 6 10 8 5 5 13 18 17 17 16 11 9 11 15 15 15 15 14 13 12 11 10 9 8 8 7 6 6 5 4 4 3 3 3 3 2 1 1
4 4 3 2 4 4 3 2 5 6 7 7 9 9 4 9 15 15 15 14 14 13 10 10 15 16 15 14 14 13 12 10 9 8 8 7 6 5 5 4 4 3 3 3 3 3 2 2 3
4 3 2 3 3 4 3 2 4 6 7 6 8 8 6 8 12 14 14 13 12 11 10 8 8 10 13 14 13 12 11 10 9 8 7 7 6 5 5 4 4 4 3 4 3 3 4 4 4
5 3 2 2 2 4 3 2 3 5 4 6 6 9 8 9 13 14 14 12 11 10 9 8 6 6 6 8 12 12 11 10 9 8 7 6 5 5 5 4 4 4 4 5 5 5 5 5 5
3 4 2 4 3 3 1 3 2 2 6 3 3 6 10 14 16 16 13 10 9 9 7 7 7 6 5 5 8 8 9 8 7 6 6 5 2 2 3 4 5 5 5 6 6 6 6 6 6
4 3 6 5 4 3 1 3 4 4 6 6 7 9 12 15 16 16 14 12 10 10 8 7 7 7 6 6 5 3 4 4 3 2 3 2 1 2 3 4 6 6 6 6 6 6 6 5 3
4 6 5 4 4 2 2 1 3 7 5 10 15 15 14 14 14 13 12 11 11 10 9 8 8 7 6 4 4 3 2 2 3 3 2 2 1 1 1 1 2 3 4 2 3 3 3 3 3
2 4 4 3 2 1 2 3 4 4 6 9 14 16 14 13 12 12 12 10 9 9 8 8 7 7 6 5 4 4 3 3 3 3 3 2 1 1 1 1 2 1 1 2 2 2 3 3 4
2 3 3 2 0 1 4 4 5 4 8 11 12 13 12 11 10 8 10 10 9 8 8 8 8 7 6 5 4 4 3 4 3 3 2 3 2 1 1 1 1 1 1 2 2 2 3 3 3
3 1 2 1 1 1 6 3 5 5 10 12 11 10 9 9 9 8 9 10 8 8 8 7 7 6 6 5 4 3 3 3 3 2 3 3 2 1 1 1 1 1 2 2 2 3 2 2 2
1 2 5 2 0 1 5 4 3 9 11 11 10 9 9 7 7 8 9 10 8 7 6 6 6 6 6 5 4 3 3 3 3 2 2 2 2 2 1 1 1 2 2 2 2 1 1 1 2
3 4 3 5 1 2 5 3 4 10 13 11 9 9 8 6 6 6 8 8 8 7 6 5 5 5 4 4 3 2 3 3 2 2 2 2 2 2 1 1 1 1 1 1 1 1 0 1 1
4 2 2 6 3 2 4 3 5 8 11 11 10 9 9 7 6 5 5 7 7 7 7 5 5 5 4 3 2 3 2 2 1 1 1 1 1 1 1 1 1 1 0 0 1 0 1 1 1
3 1 2 4 3 3 4 3 6 8 9 9 9 9 9 8 7 6 5 6 6 6 6 6 5 4 4 3 3 2 2 1 1 1 1 1 1 1 1 1 1 1 0 1 0 0 1 1 1
3 2 3 4 2 2 4 5 7 7 7 8 9 9 9 8 7 6 6 6 6 6 6 5 4 3 3 2 2 2 1 1 0 0 0 0 0 1 1 0 1 0 0 1 0 0 0 1 0
1 1 3 4 1 2 2 2 3 6 7 8 9 10 10 9 8 7 5 6 6 6 6 5 5 3 2 2 1 1 1 1 0 1 1 1 0 1 1 0 0 0 0 0 0 1 0 1 0
3 3 3 2 2 5 4 3 2 1 3 4 5 7 10 13 12 10 8 5 5 6 6 5 4 3 2 2 2 2 2 2 2 2 2 2 1 0 0 1 1 1 0 0 0 1 1 1 1
4 5 3 1 3 1 1 2 3 2 1 3 4 6 7 9 8 8 7 6 6 5 5 5 4 4 3 3 3 3 2 1 0 1 1 2 2 1 1 1 1 1 1 1 1 0 1 1 1
4 2 1 1 2 2 2 1 4 1 2 3 4 6 7 8 9 8 7 6 5 5 5 5 5 4 3 3 3 3 2 1 0 1 1 2 2 2 2 1 1 1 1 1 1 0 0 1 1
1 5 6 6 5 2 3 2 4 3 5 4 3 5 6 8 8 7 5 6 5 5 5 4 4 3 3 3 3 3 3 2 2 1 1 1 1 2 2 2 1 1 1 1 1 1 0 0 1
5 6 5 6 4 3 3 1 5 5 3 4 4 4 5 7 7 6 6 6 6 6 5 4 4 3 2 3 2 2 3 2 2 1 0 0 1 1 2 2 2 1 1 1 1 1 1 1 1
1 7 6 3 4 4 3 2 4 2 1 4 4 5 5 6 7 6 5 5 6 6 5 5 5 3 3 3 2 2 2 1 1 1 0 0 1 1 2 1 1 2 2 1 1 1 1 1 1
1 1 5 6 0 1 3 3 3 2 3 5 5 5 4 5 6 6 5 5 6 6 5 5 4 3 3 2 2 2 1 1 0 0 0 0 1 1 1 1 2 2 2 1 1 1 1 1 1
3 3 5 4 2 2 3 3 4 3 3 3 4 4 4 4 4 4 4 4 5 5 4 4 5 4 3 3 2 2 1 1 1 1 1 0 1 1 1 2 2 2 2 2 1 1 1 1 1
3 2 4 3 4 4 3 6 5 7 7 7 6 6 6 5 4 3 4 3 4 4 4 4 3 3 3 2 2 2 1 1 1 1 1 1 1 1 1 1 1 1 1 1 1 1 1 1 2
1 1 4 3 3 3 3 7 4 6 6 7 6 6 6 5 5 5 4 4 4 4 3 3 3 3 3 2 2 2 2 2 1 1 1 1 1 1 1 1 1 1 2 1 1 2 2 1 2
Wind_Direction
269 249 129 65 55 49 278 266 262 33 45 65 86 89 90 82 120 140 125 137 135 139 144 142 138 135 133 130 127 123 119 116 113 110 107 106 106 104 104 103 104 107 110 111 111 109 110 110 111
267 219 73 64 85 61 276 256 305 66 125 105 79 78 76 72 86 110 124 139 136 138 141 142 139 137 135 133 130 128 126 123 121 117 113 111 109 109 109 108 108 108 109 112 114 112 110 112 113
269 167 93 83 125 184 232 248 155 103 105 99 85 63 75 103 109 122 141 140 132 134 138 143 139 138 137 136 135 134 133 131 128 125 121 119 116 115 116 117 118 117 117 120 122 119 118 120 115
54 52 55 81 240 233 221 252 196 86 53 70 102 76 63 94 118 132 138 137 131 132 136 142 140 140 139 139 139 139 138 137 135 133 131 128 126 126 127 129 129 132 135 134 134 132 135 142 155
70 77 61 339 261 258 241 232 201 95 83 93 101 96 67 69 115 131 137 138 135 135 136 141 140 141 142 142 142 142 142 141 140 139 139 138 137 136 138 140 143 148 156 162 160 164 174 193 242
54 72 92 250 260 275 267 191 129 111 118 114 102 107 95 123 127 137 137 136 136 137 137 139 143 144 145 145 144 144 144 145 144 145 145 145 146 149 149 156 165 170 179 186 188 190 210 239 260
120 108 186 223 254 276 251 181 130 137 140 141 127 111 124 142 140 138 133 130 131 134 135 137 143 146 149 148 148 148 149 149 150 151 152 153 155 161 170 177 186 191 202 213 216 223 236 247 259
153 100 314 277 250 264 220 127 105 128 127 128 130 134 157 158 137 131 126 127 130 133 138 139 140 142 146 150 153 152 151 152 155 158 160 164 172 181 191 197 201 208 219 229 234 241 247 250 259
120 79 265 251 226 251 222 110 81 58 117 117 115 135 144 138 130 129 126 127 134 138 144 143 142 142 144 149 155 154 155 158 162 169 171 175 191 203 210 217 216 220 229 239 241 246 254 258 262
117 156 230 229 215 217 178 125 124 96 106 102 103 114 133 138 135 138 143 148 151 155 159 156 152 150 151 157 148 152 157 160 163 169 178 177 192 220 224 237 232 234 238 246 253 255 259 260 262
164 193 227 261 242 197 137 103 90 128 134 155 149 147 150 141 138 142 148 154 160 161 160 161 160 158 159 156 151 159 156 157 162 166 174 180 191 243 242 239 253 245 243 251 266 263 256 253 253
198 240 226 240 256 123 145 140 103 141 168 161 148 144 144 142 145 148 151 154 155 157 161 160 161 159 162 155 159 162 164 165 173 184 185 178 194 227 231 225 225 225 234 240 253 258 257 258 260
231 246 252 225 266 92 105 112 118 119 129 130 135 135 142 145 146 144 146 152 152 154 158 163 164 163 161 154 163 163 170 172 176 178 183 173 185 209 226 232 228 235 235 237 247 258 265 265 266
226 232 292 292 322 53 114 108 96 127 129 129 138 142 143 145 145 142 148 153 154 157 161 160 161 161 153 154 161 164 171 168 165 176 182 174 176 184 191 215 237 251 241 234 233 242 252 261 262
143 40 348 330 11 186 105 77 116 148 136 134 144 147 140 135 137 147 155 151 150 151 147 148 153 149 150 154 161 153 160 159 162 168 167 165 168 172 169 192 234 249 248 248 237 237 251 278 279
33 45 352 298 257 248 109 157 163 157 144 147 151 149 146 140 142 150 148 143 144 137 129 132 135 128 135 140 141 135 139 144 155 164 165 164 163 156 152 187 249 263 261 242 220 191 243 280 281
20 32 290 298 288 174 119 167 172 167 151 155 160 157 153 148 147 148 143 140 139 137 131 125 123 127 125 115 112 111 113 122 141 152 168 179 168 153 139 197 269 288 305 249 249 188 197 259 290
261 255 269 265 277 119 122 155 158 172 159 161 163 159 157 156 157 146 139 141 135 131 129 131 129 132 126 111 96 88 85 83 96 125 165 173 175 156 144 204 282 277 216 305 334 200 231 236 257
202 235 262 270 233 128 154 159 164 180 168 168 167 160 155 155 146 137 143 143 135 133 132 134 131 134 130 123 127 123 120 102 43 356 18 174 181 172 147 280 307 318 173 228 220 125 286 295 40
207 283 300 312 318 111 153 160 166 178 174 176 169 163 159 152 141 144 156 152 152 146 141 140 144 146 141 139 138 128 132 136 131 355 355 337 282 236 167 124 323 313 224 14 38 99 67 297 98
290 241 241 252 5 34 65 17 345 316 126 147 159 163 161 162 161 163 170 167 149 147 152 146 141 127 121 114 100 84 64 45 33 8 343 323 341 8 57 26 356 311 264 250 259 153 133 257 287
269 256 198 155 80 336 81 245 275 240 127 160 171 164 164 164 160 162 160 160 152 150 144 126 126 123 120 115 116 117 119 130 239 293 315 332 360 7 28 23 354 339 321 286 264 166 164 169 248
236 256 80 70 87 41 1 132 279 264 233 224 189 170 162 158 150 156 159 153 146 144 134 124 122 117 117 117 125 122 110 109 50 20 7 360 358 4 3 14 18 354 309 293 296 308 112 172 200
78 41 25 40 64 10 267 179 265 240 227 216 186 166 159 147 146 157 153 135 129 128 127 124 121 119 117 115 116 121 121 111 92 43 17 7 2 359 358 3 4 341 314 312 319 310 317 262 214
55 69 30 6 11 258 269 175 245 249 213 182 172 160 150 144 145 146 140 142 147 146 140 135 130 127 121 113 110 125 135 139 145 171 224 360 355 336 321 337 328 332 336 358 5 357 335 286 229
194 127 149 195 234 277 324 242 260 265 166 133 134 129 122 134 141 147 152 155 155 151 146 141 142 140 132 127 131 123 120 131 165 199 207 236 262 273 288 305 313 320 333 349 4 351 321 328 307
91 110 164 140 166 338 294 287 303 44 79 105 104 110 113 131 140 149 144 146 146 146 148 149 146 137 134 134 120 101 102 105 81 310 234 244 273 278 308 327 333 327 329 324 345 340 312 325 320
123 143 81 93 126 274 291 275 253 203 180 155 137 137 129 125 130 136 138 143 139 142 140 130 133 136 134 124 120 123 120 122 110 81 50 349 294 308 340 349 345 343 334 325 323 301 299 348 323
1 40 96 114 158 161 248 265 238 193 185 178 168 154 149 141 134 125 136 145 137 130 132 130 135 130 125 127 122 113 99 73 65 54 13 333 326 339 348 343 345 345 342 344 340 320 346 352 336
175 162 128 139 233 180 194 262 269 181 175 170 161 151 150 146 143 131 130 133 135 137 137 131 138 137 149 144 124 123 113 94 76 22 337 340 343 349 353 351 349 345 360 5 6 358 6 0 346